STARLINK-1458, 45675

Orbit data source: Space-Track

STARLINK-1458, 45675 is a payload satellite owned by SpaceX/Seattle (US) in LEO that was launched on Thu, 04 Jun 2020 UTC via an FALCON 9 launch vehicle from the Air Force Eastern Test Range (AFETR). Payloads include a variety of satellites, spacecraft, and rockets equipped with specific instruments for various scientific and technological missions. These include communications satellites like Starlink; space stations such as the ISS; scientific satellites like the Hubble; Earth observation satellites from companies like Planet Labs, Umbra, and HawkEye 360; GPS; miniature CubeSats for education and research; and military/defense satellites.

Loading next visibility...
STARLINK-1458 details
Identifier
45675, 2020-035U
Orbit
LEO
Last TLE update14 hours ago
Origin
Flag of USSpaceX/Seattle (US)
ManufacturerSpaceX/Seattle
MissionOperational Commercial Communications
Bus & MotorSTARLINK, Unknown motor
Mass260 kg wet, ~248 kg dry
Launch date (UTC)
2020-06-04 (4 years ago)
Launch vehicle
FALCON 9
Launch site
Air Force Eastern Test Range (AFETR)
Object type
Payload
Rocket body
Debris
Shape & HBRBox + 1 Pan, 8.86 m
Radar Cross Section13.562 m², Large (>1 m²)

Expand to show TLE details & history

TLE from 14 hours ago
0 STARLINK-1458
1 45675U 20035U   24336.76204606  .00007138  00000-0  49752-3 0  9995
2 45675  53.0543 344.7795 0001475  96.2538 263.8619 15.06406018248929
Epoch: 2024-12-01T18:17Z
Definitive object data (Epoch: 2024-12-01T18:17:20.779Z)
Latitude-0.00003°
Longitude-0.65271°
Altitude548.182 km
Speed7.589 km/s
True Right ascension22h 59m 07s
True Declination0° 00' 00"
Sunlit
Object was in daylight at TLE epoch
Visualization TLE readout
Latitude-20.21054°
Longitude-167.22318°
Altitude553.082 km
Speed7.585 km/s
Apparent Right ascension14h 16m 52s
Apparent Declination-37° 46' 50"
Sunlit
Object is in daylight
Visualization observer readout
Local Sidereal Time05:42:16
Azimuth103.933° ESE
Elevation-50.509°
Doppler factor1
Orbital elements
Apogee altitude548.485 km
Perigee altitude546.442 km
Semi-major axis6,925.601 km
Eccentricity0.0001475
Inclination53.0543°
RAAN344.7795°
Arg. of periapsis96.2538°
True anomaly263.84509°
Mean anomaly263.8619°
Eccentric anomaly263.8535°
Mean motion3.7658 °/min
BSTAR0.00049752
Orbital period95.6 mins
Loading maneuver chart data...

STARLINK-1458 Visibility forecast

Observer location: undefined°, undefined

Span
Click to sort rows by Start time (UTC) header in descending order
Start Az.
Max El. time (UTC)
Max El. Az.
Max El.
End time (UTC)
End Az.
6 mins2024-12-02 09:04:07.421Z329.008° NNW2024-12-02 09:07:07.421Z18.613° NNE23.914°2024-12-02 09:10:07.421Z77.824° E
6 mins2024-12-02 10:45:07.421Z293.134° NW2024-12-02 10:47:07.421Z226.782° WSW40.25°2024-12-02 10:51:07.421Z145.388° SSE
5 mins2024-12-03 02:18:07.421Z170.814° S2024-12-03 02:20:07.421Z127.824° SE23.774°2024-12-03 02:23:07.421Z75.693° E
6 mins2024-12-03 03:57:07.421Z264.05° W2024-12-03 03:59:07.421Z314.357° NW34.914°2024-12-03 04:03:07.421Z39.566° NE
|